Location: Penticton
(49.5000°N, 119.5830°W)
Time: 03:03:43
(UTC-07:00)

Daily predictions for brighter satellites

Satellite Brightness Start Highest point End
(mag) Time Altitude Azimuth Time Altitude Azimuth Time Altitude Azimuth
CZ-4C R/B 3.3 00:03:14 54° SE 00:03:52 67° ENE 00:07:37 10° N
Cosmos 2098 4.5 00:03:26 59° SW 00:03:53 70° W 00:07:39 10° N
Okean 2 3.8 00:03:43 10° N 00:07:48 53° ENE 00:08:43 43° ESE
Meteor 2-15 Rocket 4.5 00:01:58 10° N 00:08:08 71° ENE 00:10:50 35° SSE
Cosmos 2369 Rocket 3.0 00:09:50 30° SE 00:10:56 32° ESE 00:15:54 10° NE
NOSS 3-1 (C) 4.0 00:05:52 10° NW 00:13:16 79° SW 00:17:48 30° SSE
SL-8 R/B 3.5 00:08:46 10° W 00:13:35 80° S 00:18:24 10° E
Meteor 2-15 4.4 00:10:34 10° N 00:16:44 88° WSW 00:19:22 37° S
Cosmos 1302 Rocket 4.0 00:15:25 41° S 00:17:15 72° ESE 00:22:33 10° NNE
Meteor 2-14 Rocket 4.4 00:14:55 36° S 00:17:33 75° E 00:23:42 10° NNE
NOSS 8 (H) 4.5 00:19:59 69° SSW 00:20:23 82° SE 00:24:29 10° NE
USA 234 3.3 00:14:09 10° ENE 00:20:42 81° NNW 00:27:15 10° WSW
Cosmos 1892 Rocket 3.4 00:17:31 10° N 00:21:55 90° ESE 00:22:53 54° S
Cosmos 1689 Rocket 2.4 00:22:38 65° ENE 00:22:38 65° ENE 00:25:46 10° N
Landsat 5 3.7 00:21:33 47° SE 00:22:40 67° ENE 00:26:54 10° N
Helios 1A Rocket 4.1 00:20:49 10° NE 00:24:28 29° E 00:24:46 29° ESE
Cosmos 1315 Rocket 2.8 00:26:21 59° SE 00:26:41 62° E 00:30:35 10° NNE
CZ-2C R/B 3.6 00:23:42 10° NNE 00:28:20 32° E 00:29:39 28° ESE
Cosmos 2285 Rocket 4.2 00:26:11 37° SSE 00:28:35 58° ESE 00:34:51 10° NNE
Cosmos 1821 Rocket 4.1 00:25:52 31° SSW 00:29:03 75° W 00:35:19 10° N
Cosmos 1605 Rocket 4.1 00:26:47 36° S 00:29:29 72° E 00:35:54 10° NNE
Meteor 1-5 Rocket 4.4 00:28:37 40° SSE 00:30:14 55° E 00:35:27 10° NNE
H-2A R/B 2.7 00:27:14 10° NNE 00:31:47 65° ESE 00:32:43 51° SSE
Lacrosse 5 rocket 2.8 00:33:37 22° E 00:33:37 22° E 00:35:17 10° ENE
Cosmos 1602 4.4 00:32:29 40° WSW 00:33:22 48° WNW 00:37:11 10° N
BREEZE-M TANK 4.0 00:33:31 10° W 00:37:10 24° WSW 00:37:10 24° WSW
CZ-2C R/B 3.9 00:35:54 26° ESE 00:38:08 41° ENE 00:42:42 10° N
Cosmos 2123 Rocket 4.1 00:34:01 10° NNW 00:40:15 66° W 00:42:53 36° SSW
Cosmos 1602 Rocket 3.9 00:38:43 10° N 00:43:07 57° ENE 00:44:10 44° SE
ALOS 2 2.9 00:43:14 45° SW 00:44:06 54° W 00:48:25 10° NNW
CZ-4B R/B 1.8 00:46:09 51° WNW 00:46:09 51° WNW 00:48:54 10° NNW
Cosmos 1503 Rocket 4.3 00:41:26 10° NNW 00:46:32 55° WSW 00:47:56 42° SSW
Cosmos 1934 Rocket 4.1 00:44:32 32° SSW 00:47:24 65° WNW 00:53:27 10° N
Cosmos 1633 3.1 00:47:43 45° WSW 00:48:13 49° WNW 00:51:51 10° N
Cosmos 1626 Rocket 3.7 00:44:45 10° N 00:49:13 66° ENE 00:50:15 49° SE
Cosmos 1515 4.4 00:49:21 10° N 00:53:04 42° ENE 00:53:40 39° ESE
Meteor 2-4 Rocket 4.2 00:49:01 10° NNW 00:54:08 45° W 00:55:59 33° SW
Cosmos 1346 Rocket 2.6 00:50:38 10° N 00:54:34 77° ENE 00:54:59 67° SE
Cosmos 1455 Rocket 2.9 00:54:57 58° SSW 00:55:47 88° W 01:00:10 10° N
Cosmos 1943 Rocket 3.1 00:56:48 29° SE 00:57:59 32° ESE 01:02:54 10° NE
Cosmos 1025 Rocket 4.4 00:54:28 10° NNW 00:58:11 27° W 00:59:12 25° WSW
Cosmos 1536 3.9 00:58:55 31° WSW 00:59:55 37° WNW 01:03:40 10° N
Cosmos 2084 Rocket 3.0 00:56:30 10° NW 01:00:24 76° SW 01:00:36 73° SSW
Gbstr 26 Del rocket 4.3 00:58:16 10° W 01:00:53 25° WSW 01:00:53 25° WSW
ISS -3.0 01:02:16 66° N 01:02:16 66° N 01:05:31 10° ENE
Cosmos 1400 Rocket 4.2 01:02:24 27° WSW 01:03:42 33° WNW 01:07:29 10° N
Genesis I 3.1 01:04:11 71° SSW 01:04:34 83° SE 01:08:37 10° NE
Cosmos 2263 4.2 01:09:16 43° S 01:10:59 65° ESE 01:16:36 10° NNE
SeaSat 1 3.0 01:10:09 25° ESE 01:12:54 56° NE 01:17:45 10° NNW
Cosmos 1975 2.8 01:13:58 61° SE 01:14:25 68° E 01:18:28 10° NNE
Cosmos 968 Rocket 3.6 01:16:07 10° NNW 01:21:24 74° ENE 01:23:33 36° SE
Cosmos 1818 4.0 01:21:27 39° SSE 01:22:37 45° ESE 01:27:49 10° NE
GP-B 3.1 01:21:13 10° N 01:25:40 73° W 01:26:36 53° SSW
Cosmos 1833 4.1 01:22:28 10° NNW 01:28:05 75° WSW 01:30:07 41° S
BREEZE-M DEB (TANK) 3.5 01:30:00 10° W 01:33:36 57° SSW 01:46:11 10° SE
Lacrosse 5 1.8 01:32:52 39° SW 01:34:46 82° SE 01:39:53 10° ENE
BREEZE-M DEB (TANK) 4.1 01:19:14 10° WNW 01:40:06 78° SSW 01:44:41 10° ESE
Cosmos 1743 3.2 01:41:35 43° ESE 01:42:07 47° E 01:45:52 10° NNE
Cosmos 2058 Rocket 4.4 01:44:21 25° SE 01:45:48 31° E 01:49:43 10° NNE
Cosmos 1842 4.4 01:43:25 10° N 01:47:11 39° ENE 01:48:38 28° ESE
PSLV R/B 3.9 01:47:49 57° SSW 01:48:29 69° WSW 01:52:38 10° NNW
Cosmos 2100 Rocket 4.1 01:48:12 34° SSW 01:51:05 68° WNW 01:57:28 10° N
Cosmos 1953 Rocket 3.5 01:49:07 10° N 01:53:29 76° E 01:54:42 46° SSE
ATLAS 2AS CENTAUR R/B 3.0 01:45:59 10° NW 01:54:01 65° WSW 01:58:44 26° SSE
Cosmos 1777 Rocket 4.0 01:49:09 10° NNW 01:54:23 84° ENE 01:56:51 32° SSE
Cosmos 2369 Rocket 2.8 01:51:36 24° WSW 01:54:47 49° NW 02:00:15 10° NNE
Cosmos 1992 Rocket 4.4 01:53:01 32° SW 01:55:13 57° WNW 02:00:23 10° NNE
Cosmos 1340 3.6 01:51:42 10° N 01:55:23 43° ENE 01:56:38 31° ESE
SL-8 R/B 3.8 01:51:19 10° W 01:55:58 50° SSW 01:56:39 46° S
Cosmos 2219 3.1 01:51:20 10° NNW 01:57:01 83° WSW 01:59:47 32° SSE
Cosmos 2061 Rocket 4.2 01:54:48 33° SSW 01:57:46 67° WNW 02:04:12 10° N
Cosmos 1066 Rocket 4.3 01:53:26 10° NNW 01:58:41 57° W 02:00:26 39° SSW
Helios 1A Rocket 4.2 01:56:01 10° N 01:59:44 32° WNW 02:01:05 26° WSW
USA 234 4.2 01:57:08 10° ENE 02:03:23 49° N 02:09:37 10° W
Cosmos 2227 Rocket 3.5 01:58:32 10° NNW 02:03:53 40° NE 02:09:11 10° ESE
Cosmos 44 Rocket 3.3 01:58:56 10° NW 02:04:03 64° SW 02:05:47 39° S
Cosmos 1825 Rocket 3.7 02:01:23 10° NNW 02:05:47 62° W 02:06:51 46° SSW
Cosmos 1726 Rocket 3.6 02:07:25 44° SSE 02:08:39 67° E 02:12:58 10° NNE
CZ-2C R/B 3.4 02:03:52 10° N 02:08:45 42° WNW 02:11:10 26° WSW
Lacrosse 5 rocket 1.8 02:09:18 27° W 02:11:03 50° NNW 02:14:38 10° NE
Abrixas 3.8 02:12:41 31° E 02:12:41 31° E 02:14:30 10° E
Cosmos 2233 Rocket 4.4 02:08:19 26° SSE 02:11:41 54° E 02:17:40 10° NNE
Cosmos 2016 Rocket 4.0 02:10:58 33° SSW 02:13:47 67° WNW 02:19:54 10° N
Cosmos 1802 Rocket 4.3 02:11:04 31° SW 02:13:59 58° WNW 02:20:13 10° N
Cosmos 1459 Rocket 4.5 02:12:53 28° SW 02:15:48 48° WNW 02:21:42 10° N
Cosmos 1666 3.2 02:15:24 40° SE 02:16:21 51° E 02:20:03 10° NNE
Cosmos 1758 Rocket 3.5 02:13:18 10° NNW 02:17:50 74° W 02:19:14 43° S
CZ-2C R/B 4.0 02:16:59 27° WSW 02:18:07 30° W 02:22:28 10° NNW
Cosmos 1500 4.2 02:23:03 30° W 02:23:51 33° WNW 02:27:22 10° N
Cosmos 2297 Rocket 3.4 02:20:26 10° NNW 02:25:48 42° NE 02:31:08 10° ESE
Uosat 12 SS-18 rocket 4.3 02:21:28 10° NW 02:25:59 84° NE 02:31:14 10° SE
BREEZE-M R/B 4.2 02:20:57 10° WNW 02:29:12 68° SSW 02:34:59 10° SE
Landsat 4 3.6 02:34:11 40° SSE 02:35:31 87° WSW 02:39:23 10° NNW
GEOS 3 Rocket 4.1 02:31:16 10° ESE 02:36:23 63° NE 02:41:30 10° NW
Cosmos 1656 Rocket 3.6 02:35:32 32° SSW 02:38:20 89° ESE 02:44:00 10° NNE
ISS -2.9 02:35:40 10° WNW 02:38:55 63° N 02:42:09 10° E
SL-08 R/B 3.3 02:36:30 25° SSE 02:39:17 82° ENE 02:43:58 10° NNW
NPP 4.0 02:35:40 10° NNE 02:41:01 59° ESE 02:44:08 25° S
Cosmos 1943 Rocket 2.8 02:38:19 23° WSW 02:41:33 49° NW 02:47:00 10° NNE
Meteor 2-17 Rocket 4.4 02:40:28 27° S 02:44:02 85° E 02:50:12 10° N
Cosmos 1725 Rocket 4.3 02:44:44 27° SW 02:48:02 56° WNW 02:54:08 10° N
Resurs 1-4 Rocket 4.1 02:44:13 10° NE 02:48:14 22° E 02:52:12 10° SE
ATLAS CENTAUR R/B 4.1 02:46:01 10° SE 02:48:35 14° ESE 02:51:10 10° ENE
USA 161 3.4 02:46:59 14° SE 02:49:00 27° ENE 02:51:29 10° N
Cosmos 1570 Rocket 4.0 02:47:16 30° SSW 02:50:01 82° ESE 02:55:24 10° NNE
BREEZE-M DEB (TANK) 2.7 02:43:51 10° WNW 02:50:30 45° SW 02:51:33 33° SSE
SeaSat 1 3.5 02:49:56 25° WSW 02:50:42 26° WSW 02:54:52 10° NW
Cosmos 1898 Rocket 4.0 02:46:46 10° NNW 02:52:06 63° ENE 02:57:23 10° SE
Cosmos 44 3.5 02:47:08 10° NW 02:52:17 55° WSW 02:55:22 22° SSE
PSLV R/B 4.1 02:53:05 10° N 02:57:21 51° WNW 02:59:23 28° SW
ERS-2 3.1 02:55:20 10° NNE 02:58:54 41° E 03:00:53 22° SSE
ADEOS 4.2 02:55:31 10° NNE 03:00:37 50° E 03:04:22 18° S
SL-16 R/B 3.2 02:55:12 10° SE 03:01:11 56° ENE 03:07:13 10° N
Cosmos 1707 3.5 02:58:32 10° N 03:02:23 50° ENE 03:05:47 13° SSE
Cosmos 220 Rocket 4.2 02:59:26 10° NNW 03:03:48 73° ENE 03:08:07 10° SSE
Cosmos 2228 3.1 03:03:04 31° SSW 03:04:59 61° WNW 03:09:17 10° N
Cosmos 1818 4.5 03:02:04 15° WSW 03:06:16 43° NW 03:11:31 10° NNE
Geosat 4.1 03:03:00 10° NE 03:08:03 68° ESE 03:11:07 24° SSW
Cosmos 1937 Rocket 4.0 03:03:03 10° NNW 03:08:11 61° ENE 03:13:19 10° SE
ARIANE 5 R/B 3.4 03:11:16 10° NNE 03:16:09 44° E 03:20:42 12° S
NOSS 3-4 (A) 3.9 03:09:58 10° NW 03:16:53 82° NE 03:24:13 10° SE
NOSS 3-4 (C) 3.9 03:10:04 10° NW 03:17:01 82° NE 03:24:23 10° SE
Lacrosse 5 3.0 03:13:17 10° W 03:18:08 41° NNW 03:22:59 10° NE
UNK 4.3 03:16:13 10° SSE 03:20:50 60° ENE 03:25:28 10° N
Cosmos 2058 Rocket 4.2 03:21:38 20° WSW 03:23:47 30° WNW 03:27:44 10° N
NOSS 3-3 (A) 4.2 03:22:35 19° SW 03:27:21 77° NW 03:34:17 10° NE
Spot 4 Rocket 4.2 03:22:13 10° NNE 03:27:25 75° ESE 03:31:32 16° S
NOSS 3-3 (C) 4.2 03:22:41 19° SW 03:27:26 77° NW 03:34:23 10° NE
SAR-Lupe-3 4.4 03:24:55 18° SSE 03:27:28 83° WSW 03:30:59 10° NNW
Cosmos 1812 Rocket 3.6 03:24:45 22° SSW 03:27:37 78° WNW 03:32:07 10° N
Meteor 2-5 Rocket 3.8 03:24:06 10° NNW 03:29:55 71° W 03:35:35 11° S
Cosmos 1340 4.5 03:28:19 10° NW 03:30:46 17° W 03:31:31 16° WSW
Cosmos 2208 Rocket 4.4 03:28:42 20° SW 03:32:08 52° WNW 03:37:18 10° NNE
Cosmos 2082 3.8 03:29:56 10° NW 03:35:26 55° WSW 03:40:53 10° S
IRS-1D 3.8 03:33:31 10° NNE 03:38:26 62° ESE 03:43:05 12° S
Cosmos 2298 Rocket 4.2 03:33:31 10° NNW 03:38:40 53° WSW 03:43:48 10° S
CZ-2D R/B 2.8 03:33:43 10° NNE 03:39:07 54° E 03:44:25 10° S
SME Rocket 4.3 03:33:54 10° S 03:39:32 78° WSW 03:48:25 10° NNW
CBERS-1 4.3 03:35:18 10° N 03:40:20 55° WNW 03:44:03 18° SW
IRS-1C 4.2 03:36:03 10° N 03:41:22 66° WNW 03:45:30 17° SSW
Cosmos 1697 Rocket 3.9 03:37:18 10° S 03:42:23 35° ESE 03:47:30 10° NE
ATLAS 2AS CENTAUR R/B 4.4 03:39:02 10° WNW 03:43:32 16° WSW 03:46:06 14° SW
USA 234 4.2 03:39:30 10° E 03:45:47 51° NNE 03:52:04 10° WNW
Abrixas 2.4 03:44:39 12° W 03:47:24 66° S 03:50:27 10° ESE
Cosmos 2227 Rocket 2.6 03:42:40 10° NW 03:48:00 42° WSW 03:53:17 10° S
AQUA 4.4 03:43:38 10° N 03:48:10 44° WNW 03:51:37 16° SW
Cosmos 1980 Rocket 4.0 03:45:06 10° SSE 03:49:39 26° ESE 03:54:14 10° NE
Okean 3 Rocket 3.7 03:46:25 10° NNW 03:50:46 57° W 03:54:49 11° S
Lacrosse 5 rocket 3.2 03:47:46 10° WNW 03:50:53 25° N 03:53:58 10° NE
Cosmos 1464 Rocket 4.2 03:45:50 15° SSW 03:51:02 63° WNW 03:57:21 10° N
Cosmos 1814 Rocket 4.3 03:46:33 13° S 03:51:16 70° ESE 03:56:37 10° NNE
Cosmos 405 Rocket 3.6 03:54:24 10° NNW 03:58:07 34° W 04:00:59 15° SSW
Milstar 3 Cent rocket 4.4 03:58:49 10° S 03:59:50 10° SSE 04:00:56 10° SSE
Cosmos 1766 3.5 03:57:09 10° S 04:01:06 69° E 04:05:03 10° NNE
Cosmos 1092 Rocket 4.1 03:57:03 10° N 04:03:22 88° E 04:09:41 10° S
BREEZE-M DEB (TANK) 2.2 04:01:37 14° WSW 04:03:43 47° S 04:07:28 10° ESE
Cosmos 2278 3.9 04:02:08 14° SW 04:07:03 66° WNW 04:12:44 10° NNE
Cosmos 2369 3.8 04:02:33 14° SW 04:07:31 73° WNW 04:13:13 10° NNE
UNKNOWN OBJECT B 3.1 04:04:34 10° NNE 04:08:33 68° ESE 04:12:24 10° S
Cosmos 2297 Rocket 2.7 04:04:37 10° NW 04:09:51 40° WSW 04:15:03 10° S
Cosmos 1758 4.4 04:07:33 10° SSE 04:11:23 43° E 04:15:13 10° NNE
CZ-2D R/B 4.1 04:08:43 10° NNE 04:12:58 59° E 04:17:18 10° S
GEOS 3 Rocket 4.3 04:10:06 10° S 04:14:42 31° WSW 04:19:18 10° WNW
ISS -3.1 04:12:10 10° WNW 04:15:19 46° SSW 04:18:27 10° SE
Cosmos 990 Rocket 4.2 04:11:49 10° NNW 04:16:55 52° WSW 04:22:00 10° S
Cosmos 1953 3.1 04:14:10 10° S 04:18:06 53° E 04:22:05 10° NNE
USA 161 3.4 04:18:08 13° WSW 04:19:23 16° W 04:21:14 10° NW
Cosmos 468 Rocket 4.2 04:14:52 11° SW 04:19:46 63° WNW 04:24:55 10° NNE
Meteor 2-12 Rocket 4.5 04:17:09 10° SSW 04:23:11 70° WNW 04:29:15 10° N
Meteor 1-24 Rocket 4.1 04:18:24 10° NNW 04:23:44 45° W 04:29:15 10° SSW
Cosmos 1378 3.5 04:20:19 10° NNW 04:23:58 47° W 04:27:36 10° SSW
Meteor 1-22 Rocket 4.5 04:18:48 10° SSW 04:24:50 72° WNW 04:30:59 10° N
EO 1 Del DPAF 4.0 04:21:42 10° SSW 04:25:17 35° W 04:28:54 10° NNW
Cosmos 1943 Rocket 4.4 04:23:46 10° WNW 04:26:46 14° NNW 04:29:46 10° N
ATLAS CENTAUR R/B 2.0 04:21:56 10° SSW 04:26:59 77° SE 04:31:58 10° NE
Resurs 1-4 Rocket 2.3 04:23:18 10° N 04:28:32 63° WNW 04:33:42 10° SSW
SL-16 R/B 4.4 04:26:42 10° SSE 04:30:50 21° E 04:34:59 10° NE
Okean O Rocket 2.1 04:26:34 10° NNE 04:30:56 62° ESE 04:35:17 10° S
Cosmos 1461 3.6 04:26:48 10° NW 04:31:01 60° NE 04:35:00 10° SE
ERS-2 4.0 04:29:42 10° NNW 04:32:26 20° WNW 04:35:10 10° WSW
Cosmos 1500 Rocket 4.1 04:28:09 10° N 04:32:35 64° ENE 04:36:55 10° SSE
Cosmos 1805 3.5 04:32:26 10° S 04:36:21 75° E 04:40:17 10° NNE
Cosmos 1743 Rocket 3.5 04:32:18 10° N 04:36:40 84° W 04:41:00 10° S
Cosmos 1441 Rocket 3.8 04:33:15 10° NNW 04:37:00 40° W 04:40:45 10° SSW
Cosmos 1125 Rocket 3.5 04:35:06 10° NNW 04:40:20 75° WSW 04:45:31 10° SSE
Cosmos 1076 Rocket 4.2 04:37:18 10° NNW 04:41:17 35° W 04:45:12 10° SSW
Cosmos 372 Rocket 4.3 04:36:47 10° NNW 04:41:55 73° ENE 04:47:00 10° SSE
RESURS DK-1 3.0 04:37:57 10° NNW 04:42:05 63° ENE 04:46:11 10° SE
NOSS 2-1 (D) 3.8 04:40:17 10° SW 04:44:18 63° NW 04:49:09 10° NE
SL-16 R/B 3.4 04:39:48 10° SSW 04:45:08 30° W 04:50:31 10° NNW
CZ-4B R/B 3.6 04:39:45 10° NNE 04:45:21 68° ESE 04:50:49 10° S
NOSS 2-1 (C) 3.8 04:41:38 10° SW 04:45:38 63° NW 04:50:30 10° NE
Cosmos 2263 Rocket 3.8 04:42:14 10° NNW 04:47:34 41° NE 04:52:49 10° ESE
CZ-3 R/B 4.4 04:42:19 10° SW 04:57:39 20° S 05:04:21 10° SE
